Simultaneous Nadir Overpasses (SNOs) Predictions

Prediction of SNOs between GOES-16 and METOP-C Satellite Orbit:

Table of predicted SNOs for the next 14.0 days since TLE Epoch: 12/5/2020
Index Date Time (GOES-16) GOES-16 Lat,Lon METOP-C Lat,Lon Distance(km) Time Diff (sec)
1 12/07/2020 02:34:01 0.02, -75.20 0.04, -75.26 5.85 80
2 12/09/2020 14:32:15 -0.02, -75.26 -0.13, -74.82 49.63 80
3 12/11/2020 02:51:16 0.02, -75.23 -0.92, -79.41 476.29 80
4 12/12/2020 02:27:57 0.02, -75.24 0.22, -74.42 93.72 80
5 12/13/2020 14:46:49 -0.02, -75.29 0.82, -78.98 420.75 80
6 12/14/2020 14:28:51 -0.01, -75.30 -0.33, -73.99 149.63 80
7 12/16/2020 02:47:51 0.01, -75.29 -0.73, -78.58 375.56 80
8 12/17/2020 02:24:32 0.00, -75.30 0.36, -73.58 195.05 80
9 12/18/2020 14:43:25 0.00, -75.36 0.61, -78.15 318.30 80
